This demonstration page uses our WeatherBlox Daily Observations layout. Learn more.

Left ArrowRight Arrow

44.89941, -97.11507

Hourly Observations for November 7, 2019

Temp ( °F °C ) Dew Point ( °F °C ) Humidity (%) Winds ( mph kmh ) Pressure ( in mb ) Visibility ( mi km ) Precip ( " mm )
12:53 am 00:53 Clear 8 -13.3 5 -15 87 87 W 8 13 30.66 1038 10 16 0.00 0.00
1:53 am 01:53 Clear 9 -12.8 5 -15 84 84 W 5 7 30.65 1038 10 16 0.00 0.00
2:53 am 02:53 Clear 8 -13.3 5 -15 87 87 SW 5 7 30.64 1038 10 16 0.00 0.00
3:53 am 03:53 Clear 8 -13.3 5 -15 87 87 WSW 8 13 30.63 1037 10 16 0.00 0.00
4:53 am 04:53 Clear 7 -13.9 4 -15.6 87 87 WSW 6 9 30.62 1037 10 16 0.00 0.00
5:53 am 05:53 Clear 7 -13.9 3 -16.1 84 84 SW 5 7 30.62 1037 10 16 0.00 0.00
6:53 am 06:53 Clear 9 -12.8 5 -15 84 84 SSE 5 7 30.61 1037 10 16 0.00 0.00
7:53 am 07:53 Sunny 11 -11.7 7 -13.9 84 84 SSW 5 7 30.61 1037 10 16 0.00 0.00
8:53 am 08:53 Mostly Cloudy 15 -9.4 12 -11.1 88 88 SW 8 13 30.61 1037 10 16 0.00 0.00
9:53 am 09:53 Cloudy 18 -7.8 13 -10.6 81 81 SSW 10 17 30.58 1036 10 16 0.00 0.00
10:53 am 10:53 Cloudy 20 -6.7 13 -10.6 74 74 SSW 12 19 30.57 1035 10 16 0.00 0.00
11:53 am 11:53 Cloudy 21 -6.1 11 -11.7 65 65 SW 14 22 30.55 1035 10 16 0.00 0.00
12:53 pm 12:53 Cloudy 22 -5.6 11 -11.7 63 63 S 9 15 30.53 1034 10 16 0.00 0.00
1:53 pm 13:53 Cloudy 23 -5 11 -11.7 60 60 SSW 9 15 30.50 1033 10 16 0.00 0.00
2:53 pm 14:53 Cloudy 23 -5 11 -11.7 60 60 S 8 13 30.48 1032 10 16 0.00 0.00
3:53 pm 15:53 Cloudy 24 -4.4 13 -10.6 62 62 S 8 13 30.49 1033 10 16 0.00 0.00
4:53 pm 16:53 Cloudy 23 -5 15 -9.4 72 72 S 6 9 30.50 1033 10 16 0.00 0.00
5:53 pm 17:53 Cloudy 23 -5 16 -8.9 74 74 SSW 5 7 30.50 1033 10 16 0.00 0.00
6:28 pm 18:28 Cloudy 22 -5.6 16 -8.9 78 78 SSE 5 7 30.50 1033 10 16 0.00 0.00
6:51 pm 18:51 Mostly Cloudy 21 -6 16 -9 80 80 SSE 6 9 30.51 1033 10 16 0.00 0.00
6:53 pm 18:53 Partly Cloudy 20 -6.7 15 -9.4 81 81 SSE 5 7 30.49 1032 10 16 0.00 0.00
7:53 pm 19:53 Mostly Cloudy 20 -6.7 15 -9.4 81 81 Calm 30.48 1032 10 16 0.00 0.00
8:53 pm 20:53 Mostly Cloudy 20 -6.7 15 -9.4 81 81 SE 3 6 30.47 1032 10 16 0.00 0.00
9:27 pm 21:27 Partly Cloudy 19 -7.2 15 -9.4 84 84 Calm 30.50 1033 10 16 0.00 0.00
9:53 pm 21:53 Partly Cloudy 18 -7.8 15 -9.4 88 88 SSE 3 6 30.46 1032 10 16 0.00 0.00
10:02 pm 22:02 Mostly Cloudy 19 -7.2 15 -9.4 84 84 Calm 30.49 1033 10 16 0.00 0.00
10:53 pm 22:53 Cloudy 21 -6.1 16 -8.9 81 81 Calm 30.45 1031 10 16 0.00 0.00
11:53 pm 23:53 Cloudy 21 -6.1 17 -8.3 85 85 Calm 30.43 1031 10 16 0.00 0.00

Powered by AerisWeather